| time (UTC) | temp F | wind direction | speed knots | gust knots | rain 1hr in | rain 24hr in | rain mn in | humidity % | barometer mb |
| 20260505031551 | 74 | 360 | 0.9 | 3.5 | 0.00 | 0.00 | 0.00 | 72 | 1011.8 |
| 20260505030043 | 75 | 360 | 0.9 | 3.5 | 0.00 | 0.00 | 0.00 | 72 | 1011.9 |
| 20260505024537 | 75 | 360 | 0.9 | 3.5 | 0.00 | 0.00 | 0.00 | 71 | 1011.9 |
| 20260505023038 | 75 | 360 | 1.7 | 5.2 | 0.00 | 0.00 | 0.00 | 71 | 1011.8 |
| 20260505021542 | 75 | 360 | 0.9 | 3.5 | 0.00 | 0.00 | 0.00 | 71 | 1011.7 |
| 20260505020041 | 76 | 360 | 0.9 | 2.6 | 0.00 | 0.00 | 0.00 | 70 | 1011.6 |
| 20260505014543 | 76 | 360 | 1.7 | 3.5 | 0.00 | 0.00 | 0.00 | 69 | 1011.5 |
| 20260505013057 | 76 | 360 | 0.9 | 3.5 | 0.00 | 0.00 | 0.00 | 68 | 1011.3 |
| 20260505011537 | 75 | 0 | 0.0 | 3.5 | 0.00 | 0.00 | 0.00 | 63 | 1011.1 |
| 20260505010038 | 76 | 0 | 0.0 | 5.2 | 0.00 | 0.00 | 0.00 | 61 | 1011.0 |
| 20260505004542 | 76 | 0 | 0.0 | 5.2 | 0.00 | 0.00 | 0.00 | 60 | 1010.5 |
| 20260505003041 | 76 | 360 | 0.9 | 3.5 | 0.00 | 0.00 | 0.00 | 59 | 1010.2 |
| 20260505001540 | 77 | 360 | 1.7 | 9.6 | 0.00 | 0.00 | 0.00 | 58 | 1010.1 |
| 20260505000051 | 78 | 360 | 1.7 | 8.7 | 0.00 | 0.00 | 0.00 | 58 | 1009.9 |
| 20260504234544 | 78 | 360 | 0.9 | 9.6 | 0.00 | 0.00 | 0.00 | 57 | 1009.5 |
| 20260504233046 | 79 | 15 | 1.7 | 7.8 | 0.00 | 0.00 | 0.00 | 56 | 1009.5 |
| 20260504231539 | 79 | 12 | 2.6 | 8.7 | 0.00 | 0.00 | 0.00 | 55 | 1009.4 |
| 20260504230042 | 81 | 329 | 1.7 | 7.8 | 0.00 | 0.00 | 0.00 | 54 | 1009.4 |
| 20260504224540 | 81 | 346 | 1.7 | 9.6 | 0.00 | 0.00 | 0.00 | 56 | 1009.3 |
| 20260504223047 | 81 | 340 | 3.5 | 9.6 | 0.00 | 0.00 | 0.00 | 55 | 1009.2 |
| 20260504221542 | 82 | 355 | 2.6 | 9.6 | 0.00 | 0.00 | 0.00 | 55 | 1009.4 |
| 20260504220044 | 84 | 0 | 0.9 | 7.0 | 0.00 | 0.00 | 0.00 | 51 | 1009.5 |
| 20260504214547 | 84 | 5 | 0.0 | 2.6 | 0.00 | 0.00 | 0.00 | 51 | 1009.4 |
| 20260504213041 | 84 | 0 | 0.0 | 3.5 | 0.00 | 0.00 | 0.00 | 47 | 1009.4 |
| 20260504211539 | 85 | 152 | 0.0 | 1.7 | 0.00 | 0.00 | 0.00 | 45 | 1009.5 |
| 20260504210043 | 84 | 315 | 0.0 | 3.5 | 0.00 | 0.00 | 0.00 | 48 | 1009.6 |
| 20260504204544 | 85 | 89 | 0.9 | 7.0 | 0.00 | 0.00 | 0.00 | 47 | 1009.6 |
| 20260504203043 | 85 | 229 | 0.9 | 3.5 | 0.00 | 0.00 | 0.00 | 47 | 1009.6 |
| 20260504201557 | 85 | 15 | 0.9 | 3.5 | 0.00 | 0.00 | 0.00 | 46 | 1009.7 |
| 20260504200038 | 84 | 85 | 0.9 | 6.1 | 0.00 | 0.00 | 0.00 | 47 | 1010.0 |
| 20260504194536 | 84 | 132 | 0.9 | 6.1 | 0.00 | 0.00 | 0.00 | 47 | 1010.0 |
| 20260504193043 | 84 | 61 | 0.9 | 5.2 | 0.00 | 0.00 | 0.00 | 48 | 1010.2 |
| 20260504191545 | 83 | 59 | 0.9 | 5.2 | 0.00 | 0.00 | 0.00 | 48 | 1010.5 |
| 20260504190039 | 83 | 65 | 1.7 | 4.3 | 0.00 | 0.00 | 0.00 | 48 | 1010.9 |
| 20260504184555 | 84 | 67 | 1.7 | 5.2 | 0.00 | 0.00 | 0.00 | 46 | 1011.0 |
| 20260504183036 | 83 | 0 | 0.0 | 3.5 | 0.00 | 0.00 | 0.00 | 48 | 1011.1 |
| 20260504181546 | 83 | 59 | 1.7 | 5.2 | 0.00 | 0.00 | 0.00 | 47 | 1011.7 |
| 20260504180043 | 83 | 90 | 0.9 | 6.1 | 0.00 | 0.00 | 0.00 | 49 | 1012.1 |
| 20260504174545 | 82 | 51 | 0.9 | 4.3 | 0.00 | 0.00 | 0.00 | 49 | 1012.1 |
| 20260504173038 | 82 | 0 | 1.7 | 5.2 | 0.00 | 0.00 | 0.00 | 50 | 1012.3 |
| 20260504171538 | 81 | 115 | 1.7 | 6.1 | 0.00 | 0.00 | 0.00 | 51 | 1012.5 |
| 20260504081537 | 69 | 0 | 0.0 | 0.0 | 0.00 | 0.01 | 0.00 | 78 | 1011.6 |
| 20260504044544 | 71 | 360 | 0.9 | 2.6 | 0.00 | 0.02 | 0.00 | 76 | 1013.0 |
| 20260504043041 | 71 | 0 | 0.0 | 2.6 | 0.00 | 0.02 | 0.00 | 76 | 1012.9 |
| 20260504041537 | 72 | 360 | 0.9 | 2.6 | 0.00 | 0.02 | 0.00 | 76 | 1013.3 |
| 20260504040041 | 72 | 360 | 0.0 | 3.5 | 0.00 | 0.02 | 0.00 | 75 | 1013.3 |
| 20260504034542 | 72 | 360 | 0.9 | 3.5 | 0.00 | 0.05 | 0.02 | 75 | 1013.4 |
| 20260504033049 | 73 | 360 | 0.9 | 4.3 | 0.00 | 0.05 | 0.02 | 74 | 1013.4 |